^^
Paulen-Weather Station Historical Data
Daily Summary for January 25, 2020 Units:  Metric    English   Both
Daily Weekly Monthly Yearly Custom
  High: Low: Average:
Temperature: 5 °C 5 °C 5 °C
Dew Point: 4 °C 2 °C 2.7 °C
Humidity: 92% 80% 86%
Wind Speed: 15km/h 1km/h 8km/h
Wind Gust: 21km/h - -
Wind- - WNW
Pressure: 1013.68 hPa 1012.09 hPa -
Precipitation: 0 mm    
Historical Graphs
 
 
Tabular Data for January 25, 2020
Time Temperature Dew Point Pressure Wind Wind Speed Wind Gust Humidity Rainfall Rate (Hourly) solar
00:04 5 °C 2 °C 1012.63 hPa NW 7 km/h 13 km/h 80% 0 mm 0 W/m2
00:09 5 °C 2 °C 1012.63 hPa NW 7 km/h 8 km/h 80% 0 mm 0 W/m2
00:14 5 °C 2 °C 1012.63 hPa NW 7 km/h 11 km/h 80% 0 mm 0 W/m2
00:19 5 °C 2 °C 1012.7 hPa WNW 9 km/h 10 km/h 80% 0 mm 0 W/m2
00:24 5 °C 2 °C 1012.7 hPa NW 12 km/h 13 km/h 81% 0 mm 0 W/m2
00:29 5 °C 2 °C 1012.7 hPa WNW 8 km/h 16 km/h 81% 0 mm 0 W/m2
00:34 5 °C 2 °C 1012.7 hPa WNW 9 km/h 10 km/h 81% 0 mm 0 W/m2
00:39 5 °C 2 °C 1012.7 hPa WNW 9 km/h 11 km/h 80% 0 mm 0 W/m2
00:44 5 °C 2 °C 1012.77 hPa NW 13 km/h 13 km/h 81% 0 mm 0 W/m2
00:49 5 °C 2 °C 1012.77 hPa WNW 8 km/h 19 km/h 81% 0 mm 0 W/m2
00:54 5 °C 2 °C 1012.73 hPa W 6 km/h 10 km/h 81% 0 mm 0 W/m2
00:59 5 °C 2 °C 1012.73 hPa WNW 9 km/h 11 km/h 81% 0 mm 0 W/m2
01:04 5 °C 2 °C 1012.73 hPa WNW 7 km/h 11 km/h 81% 0 mm 0 W/m2
01:09 5 °C 2 °C 1012.77 hPa W 7 km/h 10 km/h 81% 0 mm 0 W/m2
01:14 5 °C 2 °C 1012.77 hPa W 8 km/h 11 km/h 82% 0 mm 0 W/m2
01:19 5 °C 2 °C 1012.67 hPa WNW 9 km/h 11 km/h 82% 0 mm 0 W/m2
01:24 5 °C 2 °C 1012.67 hPa WNW 8 km/h 11 km/h 82% 0 mm 0 W/m2
01:29 5 °C 2 °C 1012.63 hPa WNW 7 km/h 11 km/h 82% 0 mm 0 W/m2
01:34 5 °C 2 °C 1012.6 hPa W 6 km/h 10 km/h 82% 0 mm 0 W/m2
01:39 5 °C 2 °C 1012.63 hPa W 7 km/h 10 km/h 83% 0 mm 0 W/m2
01:44 5 °C 2 °C 1012.6 hPa W 6 km/h 8 km/h 83% 0 mm 0 W/m2
01:49 5 °C 2 °C 1012.63 hPa W 6 km/h 8 km/h 83% 0 mm 0 W/m2
01:54 5 °C 2 °C 1012.63 hPa WNW 6 km/h 6 km/h 84% 0 mm 0 W/m2
01:59 5 °C 2 °C 1012.6 hPa W 7 km/h 10 km/h 84% 0 mm 0 W/m2
02:04 5 °C 2 °C 1012.53 hPa WNW 4 km/h 10 km/h 84% 0 mm 0 W/m2
02:09 5 °C 2 °C 1012.5 hPa W 5 km/h 6 km/h 84% 0 mm 0 W/m2
02:14 5 °C 2 °C 1012.46 hPa WNW 7 km/h 10 km/h 84% 0 mm 0 W/m2
02:19 5 °C 2 °C 1012.46 hPa WNW 7 km/h 10 km/h 85% 0 mm 0 W/m2
02:24 5 °C 2 °C 1012.46 hPa WNW 5 km/h 8 km/h 85% 0 mm 0 W/m2
02:29 5 °C 2 °C 1012.39 hPa WNW 6 km/h 6 km/h 85% 0 mm 0 W/m2
02:34 5 °C 2 °C 1012.43 hPa WNW 11 km/h 10 km/h 85% 0 mm 0 W/m2
02:39 5 °C 2 °C 1012.43 hPa W 7 km/h 13 km/h 85% 0 mm 0 W/m2
02:44 5 °C 2 °C 1012.53 hPa NW 11 km/h 10 km/h 85% 0 mm 0 W/m2
02:49 5 °C 2 °C 1012.6 hPa WNW 12 km/h 14 km/h 85% 0 mm 0 W/m2
02:54 5 °C 2 °C 1012.67 hPa WNW 8 km/h 14 km/h 84% 0 mm 0 W/m2
02:59 5 °C 2 °C 1012.67 hPa WNW 6 km/h 13 km/h 84% 0 mm 0 W/m2
03:04 5 °C 2 °C 1012.6 hPa WNW 10 km/h 10 km/h 84% 0 mm 0 W/m2
03:09 5 °C 2 °C 1012.6 hPa WNW 8 km/h 13 km/h 84% 0 mm 0 W/m2
03:14 5 °C 2 °C 1012.6 hPa WNW 10 km/h 13 km/h 84% 0 mm 0 W/m2
03:19 5 °C 2 °C 1012.56 hPa WNW 12 km/h 13 km/h 84% 0 mm 0 W/m2
03:24 5 °C 2 °C 1012.6 hPa NW 15 km/h 19 km/h 83% 0 mm 0 W/m2
03:29 5 °C 2 °C 1012.63 hPa WNW 13 km/h 21 km/h 83% 0 mm 0 W/m2
03:34 5 °C 2 °C 1012.63 hPa NW 10 km/h 14 km/h 83% 0 mm 0 W/m2
03:39 5 °C 2 °C 1012.6 hPa NW 11 km/h 14 km/h 83% 0 mm 0 W/m2
03:44 5 °C 2 °C 1012.56 hPa WNW 12 km/h 14 km/h 83% 0 mm 0 W/m2
03:49 5 °C 2 °C 1012.56 hPa WNW 11 km/h 14 km/h 83% 0 mm 0 W/m2
03:54 5 °C 2 °C 1012.63 hPa WNW 10 km/h 14 km/h 83% 0 mm 0 W/m2
03:59 5 °C 3 °C 1012.6 hPa WNW 12 km/h 13 km/h 84% 0 mm 0 W/m2
04:04 5 °C 3 °C 1012.5 hPa NW 15 km/h 19 km/h 84% 0 mm 0 W/m2
04:09 5 °C 3 °C 1012.43 hPa NW 10 km/h 16 km/h 85% 0 mm 0 W/m2
04:14 5 °C 3 °C 1012.39 hPa NW 11 km/h 13 km/h 85% 0 mm 0 W/m2
04:19 5 °C 3 °C 1012.36 hPa WNW 12 km/h 14 km/h 85% 0 mm 0 W/m2
04:24 5 °C 3 °C 1012.23 hPa NW 11 km/h 16 km/h 85% 0 mm 0 W/m2
04:29 5 °C 3 °C 1012.19 hPa WNW 15 km/h 13 km/h 85% 0 mm 0 W/m2
04:34 5 °C 3 °C 1012.19 hPa NW 9 km/h 16 km/h 85% 0 mm 0 W/m2
04:39 5 °C 3 °C 1012.23 hPa WNW 14 km/h 16 km/h 86% 0 mm 0 W/m2
04:44 5 °C 3 °C 1012.26 hPa WNW 10 km/h 16 km/h 86% 0 mm 0 W/m2
04:49 5 °C 3 °C 1012.33 hPa WNW 9 km/h 14 km/h 86% 0 mm 0 W/m2
04:54 5 °C 3 °C 1012.39 hPa NW 7 km/h 13 km/h 87% 0 mm 0 W/m2
04:59 5 °C 3 °C 1012.39 hPa WNW 7 km/h 10 km/h 87% 0 mm 0 W/m2
05:04 5 °C 3 °C 1012.46 hPa WNW 7 km/h 10 km/h 88% 0 mm 0 W/m2
05:09 5 °C 3 °C 1012.46 hPa WNW 8 km/h 13 km/h 88% 0 mm 0 W/m2
05:14 5 °C 3 °C 1012.46 hPa WNW 9 km/h 11 km/h 88% 0 mm 0 W/m2
05:19 5 °C 3 °C 1012.39 hPa WNW 7 km/h 11 km/h 88% 0 mm 0 W/m2
05:24 5 °C 3 °C 1012.33 hPa WNW 7 km/h 11 km/h 88% 0 mm 0 W/m2
05:29 5 °C 3 °C 1012.23 hPa WNW 10 km/h 14 km/h 89% 0 mm 0 W/m2
05:34 5 °C 3 °C 1012.19 hPa NW 11 km/h 14 km/h 89% 0 mm 0 W/m2
05:39 5 °C 3 °C 1012.19 hPa NW 12 km/h 13 km/h 89% 0 mm 0 W/m2
05:44 5 °C 3 °C 1012.09 hPa WNW 10 km/h 16 km/h 89% 0 mm 0 W/m2
05:49 5 °C 3 °C 1012.23 hPa NNW 10 km/h 13 km/h 89% 0 mm 0 W/m2
05:54 5 °C 3 °C 1012.29 hPa NW 11 km/h 11 km/h 89% 0 mm 0 W/m2
05:59 5 °C 3 °C 1012.33 hPa NNW 12 km/h 14 km/h 88% 0 mm 0 W/m2
06:04 5 °C 3 °C 1012.39 hPa NW 9 km/h 16 km/h 88% 0 mm 0 W/m2
06:09 5 °C 3 °C 1012.43 hPa NW 8 km/h 13 km/h 88% 0 mm 0 W/m2
06:14 5 °C 3 °C 1012.39 hPa WNW 9 km/h 14 km/h 89% 0 mm 0 W/m2
06:19 5 °C 3 °C 1012.46 hPa WNW 8 km/h 13 km/h 89% 0 mm 0 W/m2
06:24 5 °C 3 °C 1012.53 hPa WNW 11 km/h 14 km/h 89% 0 mm 0 W/m2
06:29 5 °C 3 °C 1012.67 hPa WNW 5 km/h 16 km/h 89% 0 mm 0 W/m2
06:34 5 °C 3 °C 1012.73 hPa NW 7 km/h 6 km/h 89% 0 mm 0 W/m2
06:39 5 °C 3 °C 1012.84 hPa NW 6 km/h 10 km/h 89% 0 mm 0 W/m2
06:44 5 °C 3 °C 1012.84 hPa NW 8 km/h 10 km/h 89% 0 mm 0 W/m2
06:49 5 °C 3 °C 1012.9 hPa NW 6 km/h 11 km/h 89% 0 mm 0 W/m2
06:54 5 °C 3 °C 1012.97 hPa WNW 5 km/h 8 km/h 89% 0 mm 0 W/m2
06:59 5 °C 3 °C 1013 hPa WNW 8 km/h 8 km/h 90% 0 mm 0 W/m2
07:04 5 °C 3 °C 1013 hPa WNW 6 km/h 11 km/h 90% 0 mm 0 W/m2
07:09 5 °C 3 °C 1013.04 hPa WNW 4 km/h 8 km/h 90% 0 mm 0 W/m2
07:14 5 °C 3 °C 1013.11 hPa WNW 5 km/h 6 km/h 90% 0 mm 0 W/m2
07:19 5 °C 3 °C 1013.11 hPa WNW 3 km/h 10 km/h 90% 0 mm 0 W/m2
07:24 5 °C 3 °C 1013.24 hPa W 4 km/h 5 km/h 90% 0 mm 0 W/m2
07:29 5 °C 3 °C 1013.28 hPa W 3 km/h 8 km/h 90% 0 mm 0 W/m2
07:34 5 °C 4 °C 1013.31 hPa WNW 5 km/h 5 km/h 91% 0 mm 0 W/m2
07:39 5 °C 4 °C 1013.28 hPa WNW 5 km/h 8 km/h 91% 0 mm 0 W/m2
07:44 5 °C 4 °C 1013.28 hPa NW 6 km/h 10 km/h 91% 0 mm 0 W/m2
07:49 5 °C 4 °C 1013.21 hPa WNW 6 km/h 6 km/h 91% 0 mm 0 W/m2
07:54 5 °C 4 °C 1013.21 hPa NW 7 km/h 8 km/h 90% 0 mm 0 W/m2
07:59 5 °C 3 °C 1013.24 hPa WNW 8 km/h 11 km/h 90% 0 mm 0 W/m2
08:04 5 °C 3 °C 1013.21 hPa WNW 6 km/h 10 km/h 90% 0 mm 0 W/m2
08:09 5 °C 3 °C 1013.28 hPa W 10 km/h 11 km/h 90% 0 mm 0 W/m2
08:14 5 °C 3 °C 1013.31 hPa WNW 8 km/h 14 km/h 90% 0 mm 0 W/m2
08:19 5 °C 3 °C 1013.34 hPa NW 8 km/h 11 km/h 90% 0 mm 0 W/m2
08:24 5 °C 4 °C 1013.31 hPa WNW 6 km/h 11 km/h 90% 0 mm 0 W/m2
08:29 5 °C 4 °C 1013.34 hPa W 6 km/h 8 km/h 91% 0 mm 0 W/m2
08:34 5 °C 4 °C 1013.48 hPa W 6 km/h 8 km/h 91% 0 mm 5 W/m2
08:39 5 °C 4 °C 1013.55 hPa W 5 km/h 8 km/h 91% 0 mm 5 W/m2
08:44 5 °C 4 °C 1013.65 hPa WNW 5 km/h 6 km/h 91% 0 mm 7 W/m2
08:49 5 °C 4 °C 1013.68 hPa WNW 5 km/h 8 km/h 91% 0 mm 9 W/m2
08:54 5 °C 3 °C 1013.65 hPa WNW 3 km/h 6 km/h 91% 0 mm 12 W/m2
08:59 5 °C 4 °C 1013.65 hPa WNW 3 km/h 3 km/h 91% 0 mm 16 W/m2
09:04 5 °C 4 °C 1013.65 hPa WNW 3 km/h 3 km/h 92% 0 mm 19 W/m2
09:09 5 °C 4 °C 1013.51 hPa WNW 1 km/h 3 km/h 92% 0 mm 23 W/m2
Compliments of Weather Underground - 2 mb